Location: Twillingate Astronomical Observatory
(49.6173°N, 54.7580°W)
Time: 13:47:46
(UTC-03:-30)

Amateur Radio Satellites - All Passes

Search period start: 24 February 2017 13:17
Search period end: 25 February 2017 13:17
Location: Twillingate Astronomical Observatory, 49.6173°N, 54.7580°W

Satellite Date Start Highest point End Downlink Frequencies (MHz)
Time Altitude Azimuth
BEESAT 2 24 Feb 13:23:42 13:26:12 15° 25° (NNE) 13:28:40 435.950
AO-7 24 Feb 13:29:59 13:37:49 47° 57° (ENE) 13:45:39 .
ESTCUBE 1 24 Feb 13:33:08 13:35:30 14° 304° (WNW) 13:37:52 437.505/2401.250
ISS 24 Feb 13:38:56 13:42:14 66° 202° (SSW) 13:45:29 437.550
ITUPSAT 1 24 Feb 13:47:38 13:50:06 14° 87° (E) 13:52:34 437.325
Oscar 19 24 Feb 13:51:30 13:55:37 24° 268° (W) 13:59:44 437.125/150
BEESAT 24 Feb 13:54:36 13:57:38 16° 89° (E) 14:00:38 436.000
50 SAT 24 Feb 13:56:05 13:58:23 17° 297° (WNW) 14:00:43 437.505
DX 1 24 Feb 13:57:46 14:01:45 36° 293° (WNW) 14:05:43 434.975-435.025
VELOX 1 24 Feb 14:03:04 14:06:04 18° 301° (WNW) 14:09:04 145.980
Tancredo 1 24 Feb 14:07:38 14:10:43 42° 210° (SSW) 14:13:48 437.200
UKube-1 24 Feb 14:12:15 14:16:12 35° 294° (WNW) 14:20:06 .
AO-85 24 Feb 14:14:01 14:16:37 17° 246° (WSW) 14:19:14 145.980
SPROUT 24 Feb 14:20:26 14:22:45 14° 303° (WNW) 14:25:05 437.525
ITAMSAT 1 24 Feb 14:20:57 14:26:10 86° 74° (ENE) 14:31:26 435.822/435.867
BEESAT 3 24 Feb 14:25:07 14:29:06 57° 46° (NE) 14:33:03 437.485
MOZHAYETS 4 24 Feb 14:26:26 14:28:29 13° 86° (E) 14:30:32
Gurwin Techsat 1B 24 Feb 14:27:22 14:31:24 22° 269° (W) 14:35:27 435.225
BEESAT 2 24 Feb 15:00:48 15:04:49 56° 46° (NE) 15:08:48 435.950
ISS 24 Feb 15:16:12 15:18:13 15° 222° (SW) 15:20:13 437.550
AO-7 24 Feb 15:22:25 15:30:32 53° 258° (WSW) 15:38:41 .
ITUPSAT 1 24 Feb 15:23:45 15:28:36 85° 288° (WNW) 15:33:23 437.325
CUTE-I 24 Feb 15:25:16 15:26:58 11° 48° (NE) 15:28:40 437.470
BEESAT 24 Feb 15:31:08 15:35:57 72° 288° (WNW) 15:40:42 436.000
RS-15 24 Feb 15:54:23 16:02:42 23° 97° (E) 16:11:09 29.354- 29.394
MOZHAYETS 4 24 Feb 16:01:40 16:06:19 87° 281° (W) 16:10:55
ITAMSAT 1 24 Feb 16:03:22 16:06:21 15° 272° (W) 16:09:22 435.822/435.867
BEESAT 3 24 Feb 16:03:24 16:06:23 20° 245° (WSW) 16:09:20 437.485
PCSat 24 Feb 16:17:52 16:22:55 41° 115° (ESE) 16:28:00 145.827
DOVE 4 24 Feb 16:26:09 16:29:35 26° 64° (ENE) 16:33:04 437.250
BEESAT 2 24 Feb 16:39:14 16:42:16 21° 245° (WSW) 16:45:18 435.950
KKS-1 24 Feb 16:40:15 16:44:43 64° 102° (ESE) 16:49:09 437.445
KAITUO 1B 24 Feb 16:41:56 16:45:08 26° 66° (ENE) 16:48:22 145.475/437.950
XW-2F 24 Feb 16:44:39 16:48:06 32° 68° (ENE) 16:51:34 145.980 - 146.000
XW-2D 24 Feb 16:48:31 16:52:05 37° 69° (ENE) 16:55:40 145.860 - 145.880
XW-2B 24 Feb 16:53:28 16:57:05 40° 70° (ENE) 17:00:44 145.730 - 145.750
CUBESAT XI-V 24 Feb 16:58:08 17:02:43 63° 101° (E) 17:07:16 437.345
CUTE-I 24 Feb 17:00:42 17:05:54 56° 69° (ENE) 17:11:10 437.470
XW-2C 24 Feb 17:01:55 17:05:40 50° 72° (ENE) 17:09:26 145.795 - 145.815
ITUPSAT 1 24 Feb 17:03:06 17:05:43 15° 306° (NW) 17:08:20 437.325
HO-68 24 Feb 17:08:57 17:14:50 28° 53° (NE) 17:20:42 435.675
BEESAT 24 Feb 17:10:51 17:12:54 13° 307° (NW) 17:14:57 436.000
XW-2A 24 Feb 17:15:28 17:16:59 13° 61° (ENE) 17:18:31 145.665 - 145.685
STARS 24 Feb 17:17:12 17:21:39 71° 103° (ESE) 17:26:04 437.465
NUDT-PHONESAT 24 Feb 17:17:29 17:21:13 62° 74° (ENE) 17:24:59 437.300
LilacSat-2 24 Feb 17:17:31 17:21:24 78° 75° (ENE) 17:25:19 437.200
NO-84 24 Feb 17:22:07 17:24:54 25° 135° (SE) 17:27:54 435.350 FM
AO-7 24 Feb 17:23:46 17:25:23 11° 280° (W) 17:26:59 .
CUTE 1.7 + AOD 2 24 Feb 17:25:43 17:28:13 15° 59° (ENE) 17:30:43 437.475
CUBEBUG 2 24 Feb 17:35:12 17:36:19 11° 53° (NE) 17:37:27 437.445
MOZHAYETS 4 24 Feb 17:40:25 17:42:47 14° 304° (NW) 17:45:08
RS-15 24 Feb 18:01:02 18:12:58 74° 122° (ESE) 18:25:17 29.354- 29.394
PCSat 24 Feb 18:01:11 18:06:21 43° 316° (NW) 18:11:32 145.827
DOVE 4 24 Feb 18:03:23 18:07:11 35° 264° (W) 18:11:04 437.250
M-CUBED/EXP-1 PRIME 24 Feb 18:04:39 18:08:21 86° 286° (WNW) 18:12:18 437.505
UWE-3 24 Feb 18:12:53 18:15:34 16° 57° (ENE) 18:18:17 435.000/436.395/437.385
KAITUO 1B 24 Feb 18:15:42 18:19:06 30° 264° (W) 18:22:30 145.475/437.950
AAUSAT CUBESAT 2 24 Feb 18:16:46 18:19:29 17° 61° (ENE) 18:22:12 437.432
KKS-1 24 Feb 18:17:45 18:20:50 19° 301° (WNW) 18:23:56 437.445
XW-2F 24 Feb 18:19:07 18:22:18 24° 266° (W) 18:25:31 145.980 - 146.000
SEEDS 24 Feb 18:23:15 18:27:05 34° 68° (ENE) 18:30:56 437.485
XW-2D 24 Feb 18:23:24 18:26:25 21° 267° (W) 18:29:26 145.860 - 145.880
XW-2B 24 Feb 18:28:36 18:31:28 20° 268° (W) 18:34:21 145.730 - 145.750
ZACube-1 24 Feb 18:36:01 18:38:47 16° 58° (ENE) 18:41:35 437.345
CUBESAT XI-V 24 Feb 18:36:25 18:39:41 19° 300° (WNW) 18:42:56 437.345
STRAND 1 24 Feb 18:37:07 18:41:03 22° 91° (E) 18:44:58 437.568
XW-2C 24 Feb 18:37:43 18:40:10 16° 270° (W) 18:42:38 145.795 - 145.815
CUTE-I 24 Feb 18:41:56 18:46:18 25° 268° (W) 18:50:42 437.470
XW-2A 24 Feb 18:45:57 18:49:19 59° 259° (W) 18:52:43 145.665 - 145.685
NUDT-PHONESAT 24 Feb 18:53:47 18:55:34 13° 271° (W) 18:57:21 437.300
STARS 24 Feb 18:54:38 18:57:30 17° 302° (WNW) 19:00:21 437.465
HO-68 24 Feb 18:54:44 19:01:56 78° 254° (WSW) 19:09:09 435.675
LilacSat-2 24 Feb 18:55:12 18:56:13 11° 273° (W) 18:57:16 437.200
NO-84 24 Feb 18:58:50 19:02:17 67° 336° (NNW) 19:06:05 435.350 FM
CUTE 1.7 + AOD 2 24 Feb 18:59:15 19:03:32 74° 258° (WSW) 19:07:50 437.475
CUBEBUG 2 24 Feb 19:07:36 19:12:00 66° 73° (ENE) 19:16:37 437.445
YUBILEINY 24 Feb 19:16:58 19:22:41 18° 50° (NE) 19:28:21 435.215
AO-73 24 Feb 19:23:21 19:27:27 37° 67° (ENE) 19:31:39 145.935
Oscar 11 24 Feb 19:31:22 19:35:24 38° 68° (ENE) 19:39:27 .
M-CUBED/EXP-1 PRIME 24 Feb 19:41:11 19:42:20 11° 308° (NW) 19:43:31 437.505
UWE-3 24 Feb 19:46:55 19:51:23 81° 256° (WSW) 19:56:02 435.000/436.395/437.385
PCSat 24 Feb 19:47:53 19:51:12 16° 340° (NNW) 19:54:32 145.827
AAUSAT CUBESAT 2 24 Feb 19:50:25 19:54:33 61° 259° (W) 19:58:40 437.432
DELFI C3 24 Feb 19:56:57 20:00:07 23° 65° (ENE) 20:03:16 145.870
SEEDS 24 Feb 19:59:11 20:02:50 27° 266° (W) 20:06:29 437.485
ZACube-1 24 Feb 20:10:00 20:14:29 78° 258° (WSW) 20:19:05 437.345
RS-15 24 Feb 20:14:30 20:26:22 53° 330° (NNW) 20:38:28 29.354- 29.394
STRAND 1 24 Feb 20:15:32 20:20:39 61° 290° (WNW) 20:25:43 437.568
NO-84 24 Feb 20:36:59 20:40:25 36° 358° (N) 20:44:10 435.350 FM
CUBEBUG 2 24 Feb 20:46:16 20:49:08 17° 272° (W) 20:52:04 437.445
HO-68 24 Feb 20:46:26 20:50:50 17° 274° (W) 20:55:14 435.675
FO-29 24 Feb 20:52:40 20:53:55 10° 75° (ENE) 20:55:10 435.910
LO-87 24 Feb 20:56:54 20:58:44 14° 61° (ENE) 21:00:35 145.935 - 145.965
AO-73 24 Feb 20:59:51 21:03:45 29° 266° (W) 21:07:45 145.935
Oscar 11 24 Feb 21:07:57 21:11:38 26° 266° (W) 21:15:21 .
YUBILEINY 24 Feb 21:12:47 21:21:32 67° 76° (ENE) 21:30:10 435.215
ESTCUBE 1 24 Feb 21:23:11 21:26:23 19° 60° (ENE) 21:29:35 437.505/2401.250
UWE-3 24 Feb 21:27:39 21:28:39 11° 276° (W) 21:29:39 435.000/436.395/437.385
DELFI C3 24 Feb 21:31:03 21:34:45 37° 263° (W) 21:38:27 145.870
PCSat 24 Feb 21:34:37 21:36:59 13° 7° (N) 21:39:20 145.827
UNISAT 6 24 Feb 21:40:58 21:45:09 30° 94° (E) 21:49:16 437.425
TIGRISAT 24 Feb 21:41:34 21:45:41 29° 94° (E) 21:49:44 435.000
PRISM 24 Feb 21:45:39 21:49:44 68° 103° (ESE) 21:53:47 437.425
VELOX 1 24 Feb 21:53:02 21:55:22 14° 56° (ENE) 21:57:42 145.980
STRAND 1 24 Feb 21:56:55 21:58:50 12° 310° (NW) 22:00:45 437.568
O/OREOS (USA 219) 24 Feb 21:57:14 21:59:52 16° 100° (E) 22:02:32 437.305
SPROUT 24 Feb 22:06:50 22:09:14 15° 58° (ENE) 22:11:37 437.525
NO-84 24 Feb 22:14:51 22:18:40 51° 18° (NNE) 22:22:46 435.350 FM
LO-87 24 Feb 22:28:17 22:31:47 57° 259° (W) 22:35:18 145.935 - 145.965
RS-15 24 Feb 22:30:51 22:42:16 40° 3° (N) 22:53:36 29.354- 29.394
FO-29 24 Feb 22:33:23 22:40:57 51° 97° (E) 22:47:51 435.910
DUCHIFAT 1 24 Feb 22:42:50 22:43:21 10° 86° (E) 22:43:53 145.980
SO-50 24 Feb 22:47:52 22:52:28 61° 125° (SE) 22:57:02 436.795
EO-79 24 Feb 22:50:59 22:53:30 15° 89° (E) 22:56:03 145.935-145.965
ESTCUBE 1 24 Feb 22:58:19 23:02:47 61° 258° (WSW) 23:07:17 437.505/2401.250
50 SAT 24 Feb 23:00:19 23:03:29 33° 69° (ENE) 23:06:40 437.505
POLYITAN 1 24 Feb 23:07:38 23:11:01 22° 92° (E) 23:14:23 437.675
NANOSAT C BR1 24 Feb 23:07:56 23:11:10 20° 92° (E) 23:14:22 145.865
YUBILEINY 24 Feb 23:10:18 23:17:44 33° 278° (W) 23:25:09 435.215
QB50P2 24 Feb 23:10:26 23:14:01 25° 94° (E) 23:17:33 145.880/145.840
UNISAT 6 24 Feb 23:17:33 23:21:55 38° 293° (WNW) 23:26:14 437.425
PCSat 24 Feb 23:18:02 23:22:26 24° 32° (NNE) 23:26:48 145.827
TIGRISAT 24 Feb 23:18:03 23:22:27 40° 293° (WNW) 23:26:49 435.000
DX 1 24 Feb 23:21:04 23:25:09 42° 68° (ENE) 23:29:15 434.975-435.025
PRISM 24 Feb 23:22:08 23:24:33 15° 301° (WNW) 23:26:58 437.425
VELOX 1 24 Feb 23:26:49 23:31:13 85° 258° (WSW) 23:35:38 145.980
AIST 2D 24 Feb 23:27:14 23:30:45 54° 100° (E) 23:34:15 435.315
O/OREOS (USA 219) 24 Feb 23:34:14 23:38:42 71° 298° (WNW) 23:43:14 437.305
UKube-1 24 Feb 23:34:38 23:38:42 42° 68° (ENE) 23:42:46 .
SPROUT 24 Feb 23:40:19 23:44:35 78° 258° (WSW) 23:48:54 437.525
BUGSAT 1 24 Feb 23:41:05 23:43:40 16° 90° (E) 23:46:14 437.445
NO-84 24 Feb 23:52:30 23:56:28 52° 217° (SW) 00:00:40 435.350 FM
DUCHIFAT 1 25 Feb 00:15:24 00:19:43 85° 105° (ESE) 00:23:59 145.980
FO-29 25 Feb 00:18:34 00:25:49 44° 299° (WNW) 00:32:34 435.910
Oscar 19 25 Feb 00:19:36 00:22:05 13° 86° (E) 00:24:35 437.125/150
EO-79 25 Feb 00:25:27 00:29:44 66° 287° (WNW) 00:33:58 145.935-145.965
SO-50 25 Feb 00:29:10 00:33:15 30° 325° (NW) 00:37:19 436.795
50 SAT 25 Feb 00:34:03 00:36:42 20° 266° (W) 00:39:22 437.505
POLYITAN 1 25 Feb 00:42:54 00:47:02 44° 290° (WNW) 00:51:06 437.675
NANOSAT C BR1 25 Feb 00:43:00 00:47:08 47° 290° (WNW) 00:51:14 145.865
RS-15 25 Feb 00:45:36 00:57:52 59° 35° (NE) 01:09:46 29.354- 29.394
QB50P2 25 Feb 00:45:55 00:49:56 39° 292° (WNW) 00:53:55 145.880/145.840
ITUPSAT 1 25 Feb 00:57:49 01:01:51 28° 62° (ENE) 01:05:54 437.325
DX 1 25 Feb 00:58:01 01:01:30 24° 266° (W) 01:05:02 434.975-435.025
Gurwin Techsat 1B 25 Feb 00:58:26 01:02:01 18° 89° (E) 01:05:35 435.225
PCSat 25 Feb 01:01:07 01:06:36 86° 52° (NE) 01:12:02 145.827
AIST 2D 25 Feb 01:01:36 01:03:35 14° 298° (WNW) 01:05:34 435.315
BEESAT 25 Feb 01:04:38 01:08:50 31° 64° (ENE) 01:13:04 436.000
VELOX 1 25 Feb 01:07:28 01:08:22 11° 274° (W) 01:09:16 145.980
UKube-1 25 Feb 01:11:26 01:14:54 23° 266° (W) 01:18:22 .
BUGSAT 1 25 Feb 01:15:14 01:19:26 63° 287° (WNW) 01:23:38 437.445
O/OREOS (USA 219) 25 Feb 01:16:37 01:19:00 14° 320° (NW) 01:21:25 437.305
MOZHAYETS 4 25 Feb 01:31:46 01:35:17 22° 61° (ENE) 01:38:50
NO-84 25 Feb 01:32:13 01:33:31 11° 234° (SW) 01:34:50 435.350 FM
DUCHIFAT 1 25 Feb 01:52:38 01:54:47 14° 303° (WNW) 01:56:55 145.980
Oscar 19 25 Feb 01:57:02 02:02:11 87° 105° (ESE) 02:07:19 437.125/150
FO-29 25 Feb 02:05:30 02:08:51 13° 321° (NW) 02:12:09 435.910
KKS-1 25 Feb 02:08:12 02:10:42 15° 57° (ENE) 02:13:12 437.445
SO-50 25 Feb 02:12:50 02:15:09 14° 349° (N) 02:17:27 436.795
ITAMSAT 1 25 Feb 02:30:01 02:34:03 22° 91° (E) 02:38:04 435.822/435.867
CUBESAT XI-V 25 Feb 02:30:29 02:33:14 16° 57° (ENE) 02:35:58 437.345
ITUPSAT 1 25 Feb 02:34:52 02:39:29 45° 261° (W) 02:44:08 437.325
Gurwin Techsat 1B 25 Feb 02:37:14 02:42:35 77° 288° (WNW) 02:47:53 435.225
BEESAT 25 Feb 02:42:04 02:46:32 38° 263° (W) 02:51:02 436.000
STARS 25 Feb 02:43:42 02:46:18 16° 57° (ENE) 02:48:54 437.465
PCSat 25 Feb 02:45:45 02:49:18 18° 254° (WSW) 02:52:51 145.827
RS-15 25 Feb 02:58:42 03:10:44 62° 243° (WSW) 03:22:18 29.354- 29.394
MOZHAYETS 4 25 Feb 03:07:32 03:12:06 56° 259° (W) 03:16:43
AO-7 25 Feb 03:18:42 03:26:33 43° 99° (E) 03:34:19 .
M-CUBED/EXP-1 PRIME 25 Feb 03:21:42 03:24:21 23° 60° (ENE) 03:27:01 437.505
Oscar 19 25 Feb 03:37:35 03:40:51 17° 305° (NW) 03:44:08 437.125/150
KKS-1 25 Feb 03:42:15 03:46:40 82° 257° (WSW) 03:51:08 437.445
SO-50 25 Feb 03:54:58 03:57:30 14° 14° (NNE) 04:00:00 436.795
CUBESAT XI-V 25 Feb 04:05:20 04:10:00 83° 256° (WSW) 04:14:41 437.345
ITAMSAT 1 25 Feb 04:08:45 04:13:56 62° 290° (WNW) 04:19:05 435.822/435.867
STARS 25 Feb 04:17:44 04:22:05 77° 256° (WSW) 04:26:31 437.465
Gurwin Techsat 1B 25 Feb 04:18:44 04:21:41 15° 308° (NW) 04:24:39 435.225
AO-85 25 Feb 04:30:49 04:35:04 43° 122° (ESE) 04:39:03 145.980
M-CUBED/EXP-1 PRIME 25 Feb 04:56:01 04:58:48 26° 258° (WSW) 05:01:37 437.505
AO-7 25 Feb 05:11:31 05:19:34 55° 300° (WNW) 05:27:32 .
RS-15 25 Feb 05:13:48 05:20:25 17° 267° (W) 05:26:56 29.354- 29.394
CUTE-I 25 Feb 05:14:27 05:17:38 16° 87° (E) 05:20:48 437.470
KKS-1 25 Feb 05:23:16 05:23:57 10° 274° (W) 05:24:39 437.445
SO-50 25 Feb 05:35:03 05:39:15 35° 38° (NE) 05:43:23 436.795
KAITUO 1B 25 Feb 05:42:50 05:45:41 20° 92° (E) 05:48:30 145.475/437.950
XW-2F 25 Feb 05:46:36 05:49:50 25° 94° (E) 05:53:01 145.980 - 146.000
CUBESAT XI-V 25 Feb 05:46:42 05:48:07 11° 275° (W) 05:49:33 437.345
ITAMSAT 1 25 Feb 05:50:20 05:52:25 12° 310° (NW) 05:54:29 435.822/435.867
XW-2D 25 Feb 05:50:51 05:54:16 29° 95° (E) 05:57:39 145.860 - 145.880
XW-2B 25 Feb 05:55:50 05:59:21 32° 96° (E) 06:02:47 145.730 - 145.750
DOVE 4 25 Feb 05:56:19 06:00:44 41° 98° (E) 06:05:22 437.250
STRAND 1 25 Feb 05:56:51 06:01:45 47° 67° (ENE) 06:06:42 437.568
BEESAT 3 25 Feb 05:56:55 05:59:56 22° 115° (ESE) 06:03:00 437.485
XW-2C 25 Feb 06:04:22 06:08:02 40° 98° (E) 06:11:38 145.795 - 145.815
AO-85 25 Feb 06:11:38 06:15:34 32° 321° (NW) 06:19:19 145.980
NUDT-PHONESAT 25 Feb 06:17:43 06:21:23 47° 99° (E) 06:25:00 437.300
HO-68 25 Feb 06:19:09 06:23:26 16° 85° (E) 06:27:42 435.675
LilacSat-2 25 Feb 06:20:40 06:24:32 64° 102° (ESE) 06:28:20 437.200
O/OREOS (USA 219) 25 Feb 06:22:34 06:24:51 13° 39° (NE) 06:27:07 437.305
BEESAT 2 25 Feb 06:34:12 06:37:18 22° 116° (ESE) 06:40:28 435.950
CUTE 1.7 + AOD 2 25 Feb 06:41:01 06:43:24 15° 88° (E) 06:45:45 437.475
CUTE-I 25 Feb 06:52:59 06:58:25 87° 286° (WNW) 07:03:48 437.470
CUBEBUG 2 25 Feb 06:55:59 06:57:43 12° 85° (E) 06:59:26 437.445
AO-7 25 Feb 07:05:27 07:10:37 18° 323° (NW) 07:15:47 .
PRISM 25 Feb 07:06:43 07:08:12 12° 56° (NE) 07:09:40 437.425
FO-29 25 Feb 07:10:04 07:12:51 12° 37° (NE) 07:15:41 435.910
SO-50 25 Feb 07:15:31 07:19:49 44° 238° (WSW) 07:24:03 436.795
KAITUO 1B 25 Feb 07:16:19 07:19:52 38° 290° (WNW) 07:23:22 145.475/437.950
XW-2F 25 Feb 07:20:37 07:24:00 30° 293° (WNW) 07:27:21 145.980 - 146.000
XW-2D 25 Feb 07:25:09 07:28:25 27° 294° (WNW) 07:31:38 145.860 - 145.880
AAUSAT CUBESAT 2 25 Feb 07:29:11 07:31:41 16° 89° (E) 07:34:11 437.432
XW-2B 25 Feb 07:30:16 07:33:26 25° 294° (WNW) 07:36:34 145.730 - 145.750
UWE-3 25 Feb 07:33:05 07:36:10 17° 88° (E) 07:39:13 435.000/436.395/437.385
BEESAT 3 25 Feb 07:33:25 07:37:15 51° 315° (NW) 07:41:10 437.485
DOVE 4 25 Feb 07:34:21 07:38:18 29° 295° (WNW) 07:42:27 437.250
XW-2A 25 Feb 07:36:17 07:39:47 78° 103° (ESE) 07:43:14 145.665 - 145.685
STRAND 1 25 Feb 07:36:44 07:41:09 28° 266° (W) 07:45:35 437.568
SEEDS 25 Feb 07:37:56 07:41:48 35° 97° (E) 07:45:37 437.485
XW-2C 25 Feb 07:39:06 07:42:00 20° 296° (WNW) 07:44:52 145.795 - 145.815
NUDT-PHONESAT 25 Feb 07:52:25 07:55:00 18° 298° (WNW) 07:57:35 437.300
ZACube-1 25 Feb 07:54:59 07:57:56 17° 88° (E) 08:00:53 437.345
AO-85 25 Feb 07:55:38 07:57:11 12° 344° (NNW) 07:58:41 145.980
LilacSat-2 25 Feb 07:56:13 07:58:21 14° 300° (WNW) 08:00:28 437.200
ISS 25 Feb 07:58:12 08:00:28 17° 140° (SE) 08:02:43 437.550
O/OREOS (USA 219) 25 Feb 08:00:37 08:05:11 65° 60° (ENE) 08:09:45 437.305
HO-68 25 Feb 08:05:10 08:12:22 77° 105° (ESE) 08:19:31 435.675
BEESAT 2 25 Feb 08:10:55 08:14:48 50° 315° (NW) 08:18:46 435.950
CUTE 1.7 + AOD 2 25 Feb 08:15:29 08:19:42 66° 287° (WNW) 08:23:52 437.475
Tancredo 1 25 Feb 08:23:58 08:26:46 26° 145° (SE) 08:29:35 437.200
YUBILEINY 25 Feb 08:27:51 08:32:19 15° 70° (ENE) 08:36:46 435.215
CUBEBUG 2 25 Feb 08:30:16 08:35:04 83° 103° (ESE) 08:39:49 437.445
CUTE-I 25 Feb 08:34:18 08:37:45 17° 306° (NW) 08:41:10 437.470
PRISM 25 Feb 08:38:46 08:42:51 87° 68° (ENE) 08:46:56 437.425
AO-73 25 Feb 08:42:43 08:47:04 42° 97° (E) 08:51:19 145.935
UNISAT 6 25 Feb 08:43:37 08:47:53 43° 68° (ENE) 08:52:18 437.425
TIGRISAT 25 Feb 08:44:03 08:48:18 40° 67° (ENE) 08:52:39 435.000
FO-29 25 Feb 08:49:04 08:55:47 40° 60° (ENE) 09:02:54 435.910
Oscar 11 25 Feb 08:49:53 08:54:01 42° 98° (E) 08:58:07 .
AAUSAT CUBESAT 2 25 Feb 09:03:29 09:07:33 58° 288° (WNW) 09:11:34 437.432
DELFI C3 25 Feb 09:04:06 09:07:02 20° 92° (E) 09:09:55 145.870
UWE-3 25 Feb 09:08:25 09:13:06 67° 287° (WNW) 09:17:42 435.000/436.395/437.385
XW-2A 25 Feb 09:11:18 09:12:00 10° 301° (WNW) 09:12:43 145.665 - 145.685
BEESAT 3 25 Feb 09:13:30 09:15:46 14° 337° (NNW) 09:18:02 437.485
SEEDS 25 Feb 09:13:52 09:17:23 26° 295° (WNW) 09:20:52 437.485
ZACube-1 25 Feb 09:30:07 09:34:42 66° 287° (WNW) 09:39:10 437.345
ISS 25 Feb 09:33:12 09:36:30 73° 158° (SSE) 09:39:48 437.550
DUCHIFAT 1 25 Feb 09:37:42 09:40:05 15° 58° (ENE) 09:42:29 145.980
AO-85 25 Feb 09:38:57 09:39:25 10° 10° (N) 09:39:53 145.980
O/OREOS (USA 219) 25 Feb 09:41:04 09:44:07 18° 259° (W) 09:47:08 437.305
EO-79 25 Feb 09:47:18 09:50:28 21° 61° (ENE) 09:53:38 145.935-145.965
BEESAT 2 25 Feb 09:51:12 09:53:29 15° 337° (NNW) 09:55:48 435.950
HO-68 25 Feb 09:53:36 09:59:29 29° 307° (NW) 10:05:22 435.675
Tancredo 1 25 Feb 09:59:34 10:02:50 83° 348° (NNW) 10:06:06 437.200
NANOSAT C BR1 25 Feb 10:03:56 10:07:29 27° 64° (ENE) 10:11:04 145.865
POLYITAN 1 25 Feb 10:04:06 10:07:47 29° 65° (ENE) 10:11:29 437.675
AIST 2D 25 Feb 10:05:40 10:08:59 38° 70° (ENE) 10:12:21 435.315
QB50P2 25 Feb 10:06:56 10:10:43 32° 66° (ENE) 10:14:32 145.880/145.840
CUBEBUG 2 25 Feb 10:08:07 10:11:04 17° 302° (WNW) 10:14:01 437.445
PRISM 25 Feb 10:17:54 10:18:43 10° 273° (W) 10:19:33 437.425
YUBILEINY 25 Feb 10:18:38 10:27:18 65° 93° (E) 10:35:58 435.215
AO-73 25 Feb 10:19:17 10:23:07 27° 296° (WNW) 10:26:53 145.935
UNISAT 6 25 Feb 10:21:00 10:24:47 26° 267° (W) 10:28:39 437.425
TIGRISAT 25 Feb 10:21:16 10:25:06 27° 267° (W) 10:29:03 435.000
Oscar 11 25 Feb 10:26:26 10:29:58 25° 296° (WNW) 10:33:27 .
FO-29 25 Feb 10:33:22 10:40:29 58° 261° (W) 10:48:13 435.910
BUGSAT 1 25 Feb 10:34:52 10:37:49 20° 61° (ENE) 10:40:48 437.445
DELFI C3 25 Feb 10:38:18 10:42:02 42° 290° (WNW) 10:45:44 145.870
ESTCUBE 1 25 Feb 10:46:55 10:50:18 21° 92° (E) 10:53:39 437.505/2401.250
UWE-3 25 Feb 10:47:09 10:48:40 11° 306° (NW) 10:50:10 435.000/436.395/437.385
ZACube-1 25 Feb 11:08:56 11:10:05 11° 307° (NW) 11:11:13 437.345
ISS 25 Feb 11:09:48 11:13:05 58° 358° (N) 11:16:20 437.550
DUCHIFAT 1 25 Feb 11:11:00 11:15:13 76° 258° (WSW) 11:19:29 145.980
VELOX 1 25 Feb 11:13:53 11:16:05 13° 88° (E) 11:18:17 145.980
AO-85 25 Feb 11:17:59 11:21:14 24° 34° (NE) 11:24:28 145.980
EO-79 25 Feb 11:21:48 11:25:54 50° 260° (W) 11:30:04 145.935-145.965
SPROUT 25 Feb 11:23:04 11:25:18 14° 88° (E) 11:27:31 437.525
LO-87 25 Feb 11:24:18 11:27:55 86° 286° (WNW) 11:31:31 145.935 - 145.965
Tancredo 1 25 Feb 11:36:03 11:39:17 58° 4° (N) 11:42:30 437.200
NANOSAT C BR1 25 Feb 11:39:10 11:43:05 36° 263° (W) 11:47:02 145.865
POLYITAN 1 25 Feb 11:39:38 11:43:29 34° 263° (W) 11:47:25 437.675
Oscar 19 25 Feb 11:39:49 11:44:20 32° 63° (ENE) 11:48:51 437.125/150
AIST 2D 25 Feb 11:39:54 11:42:24 18° 268° (W) 11:44:55 435.315
QB50P2 25 Feb 11:42:47 11:46:31 30° 265° (W) 11:50:18 145.880/145.840
50 SAT 25 Feb 11:54:08 11:56:45 19° 94° (E) 11:59:19 437.505
BUGSAT 1 25 Feb 12:08:54 12:12:51 50° 260° (W) 12:16:54 437.445
YUBILEINY 25 Feb 12:16:48 12:24:43 36° 296° (WNW) 12:32:40 435.215
ITAMSAT 1 25 Feb 12:17:41 12:18:34 10° 48° (NE) 12:19:28 435.822/435.867
ESTCUBE 1 25 Feb 12:23:03 12:27:24 51° 290° (WNW) 12:31:44 437.505/2401.250
Gurwin Techsat 1B 25 Feb 12:23:19 12:28:18 43° 66° (ENE) 12:33:19 435.225
FO-29 25 Feb 12:24:17 12:27:17 13° 283° (WNW) 12:30:22 435.910
BEESAT 3 25 Feb 12:31:54 12:34:21 15° 25° (NNE) 12:36:48 437.485
AO-7 25 Feb 12:32:18 12:38:46 26° 45° (NE) 12:45:13 .
DX 1 25 Feb 12:40:37 12:44:46 42° 99° (E) 12:48:55 434.975-435.025
ISS 25 Feb 12:46:23 12:49:42 88° 22° (NNE) 12:53:00 437.550
VELOX 1 25 Feb 12:48:40 12:53:06 78° 285° (WNW) 12:57:31 145.980
UKube-1 25 Feb 12:52:56 12:57:02 41° 99° (E) 13:01:07 .
SPROUT 25 Feb 12:57:24 13:01:44 73° 287° (WNW) 13:06:01 437.525
AO-85 25 Feb 12:58:04 13:01:56 58° 235° (SW) 13:05:48 145.980
BEESAT 2 25 Feb 13:09:53 13:12:27 16° 25° (NNE) 13:14:59 435.950
